Location: Gleizolles
(44.4833°N, 6.7667°E)
Time: 23:33:18
(UTC+00:00)

SR - All Passes

Search period start: 15 June 2024 00:00
Search period end: 25 June 2024 00:00
Orbit: 580 x 858 km, 66.7° (Epoch: 15 June)

Date Brightness Start Highest point End Pass type
(mag) Time Alt. Az. Time Alt. Az. Time Alt. Az.
15 Jun - 09:51:59 10° SE 09:53:47 12° ESE 09:55:33 10° E daylight
15 Jun - 11:30:01 10° SSW 11:35:02 88° WNW 11:39:41 10° NNE daylight
15 Jun - 13:14:36 10° WNW 13:17:29 16° NW 13:20:16 10° N daylight
15 Jun - 18:27:48 10° N 18:30:12 15° NE 18:32:36 10° ENE daylight
15 Jun - 20:08:22 10° NNW 20:12:38 84° WSW 20:16:54 10° SSE visible
16 Jun - 10:38:02 10° S 10:42:47 43° ESE 10:47:11 10° NE daylight
16 Jun - 12:20:35 10° WSW 12:24:45 27° NW 12:28:40 10° NNE daylight
16 Jun - 19:16:11 10° NNW 19:20:15 43° NE 19:24:19 10° SE daylight
16 Jun - 20:58:39 10° WNW 21:01:45 20° WSW 21:04:53 10° SSW visible
17 Jun - 09:47:01 10° SSE 09:50:40 21° ESE 09:54:08 10° ENE daylight
17 Jun - 11:27:23 10° SW 11:32:12 53° NW 11:36:42 10° NNE daylight
17 Jun - 13:14:00 10° NW 13:15:01 11° NW 13:16:02 10° NNW daylight
17 Jun - 18:24:18 10° N 18:27:39 22° NE 18:30:58 10° E daylight
17 Jun - 20:05:37 10° NW 20:09:40 45° WSW 20:13:46 10° S visible
18 Jun - 10:34:52 10° SSW 10:39:51 75° ESE 10:44:27 10° NE daylight
18 Jun - 12:18:49 10° W 12:22:08 18° NW 12:25:18 10° N daylight
18 Jun - 17:33:03 10° NNE 17:34:50 12° NE 17:36:36 10° ENE daylight
18 Jun - 19:13:10 10° NNW 19:17:24 76° ENE 19:21:41 10° SE daylight
18 Jun - 20:57:28 10° W 20:58:35 11° WSW 20:59:41 10° WSW visible
19 Jun - 09:43:08 10° S 09:47:37 34° ESE 09:51:49 10° NE daylight
19 Jun - 11:25:04 10° WSW 11:29:27 33° NW 11:33:34 10° NNE daylight
19 Jun - 18:21:03 10° NNW 18:24:57 34° NE 18:28:52 10° ESE daylight
19 Jun - 20:03:07 10° NW 20:06:37 25° WSW 20:10:10 10° SSW visible
20 Jun - 08:52:32 10° SE 08:55:33 16° ESE 08:58:26 10° ENE daylight
20 Jun - 10:32:03 10° SW 10:36:57 66° WNW 10:41:30 10° NNE daylight
20 Jun - 12:17:38 10° WNW 12:19:36 12° NW 12:21:31 10° N daylight
20 Jun - 17:29:17 10° N 17:32:17 18° NE 17:35:16 10° E daylight
20 Jun - 19:10:18 10° NW 19:14:29 59° WSW 19:18:42 10° SSE daylight
21 Jun - 09:39:45 10° SSW 09:44:38 59° ESE 09:49:09 10° NE daylight
21 Jun - 11:23:06 10° W 11:26:46 21° NW 11:30:16 10° N daylight
21 Jun - 16:38:40 10° NNE 16:39:23 10° NE 16:40:06 10° NE daylight
21 Jun - 18:17:57 10° NNW 18:22:09 59° NE 18:26:23 10° SE daylight
21 Jun - 20:01:10 10° WNW 20:03:28 14° WSW 20:05:47 10° SW visible
22 Jun - 08:48:17 10° S 08:52:26 27° ESE 08:56:21 10° NE daylight
22 Jun - 10:29:34 10° WSW 10:34:08 40° NW 10:38:24 10° NNE daylight
22 Jun - 17:25:55 10° NNW 17:29:37 28° NE 17:33:19 10° ESE daylight
22 Jun - 19:07:38 10° NW 19:11:26 32° WSW 19:15:17 10° S daylight
23 Jun - 07:58:20 10° SE 08:00:24 13° ESE 08:02:24 10° E daylight
23 Jun - 09:36:46 10° SSW 09:41:42 82° WNW 09:46:15 10° NNE daylight
23 Jun - 11:21:35 10° WNW 11:24:10 14° NW 11:26:41 10° N daylight
23 Jun - 16:34:18 10° N 16:36:52 15° NE 16:39:26 10° ENE daylight
23 Jun - 18:14:58 10° NW 18:19:14 78° WSW 18:23:31 10° SSE daylight
24 Jun - 08:44:41 10° S 08:49:23 46° ESE 08:53:47 10° NE daylight
24 Jun - 10:27:25 10° WSW 10:31:23 25° NW 10:35:10 10° N daylight
24 Jun - 17:22:43 10° NNW 17:26:50 46° NE 17:30:58 10° SE daylight
24 Jun - 19:05:21 10° WNW 19:08:18 18° WSW 19:11:18 10° SSW daylight
